Location: Acton
(51.4942°N, 0.2232°W)
Time: 09:41:56
(UTC+00:00)

Okean 1-7 Rocket - Pass Details

Date: 22 January 2021
Orbit: 615 x 650 km, 82.5° (Epoch: 26 February)

Event Time Altitude Azimuth Distance (km) Brightness Sun altitude
Rises 18:18:16 0° 189° (S) 2,948 7.3 -16.0°
Reaches altitude 10° 18:20:30 10° 190° (S) 2,046 6.5 -16.3°
Maximum altitude 18:25:03 87° 278° (W) 659 3.6 -17.0°
Drops below altitude 10° 18:29:40 10° 10° (N) 2,068 6.0 -17.7°
Sets 18:31:56 0° 11° (N) 2,984 6.9 -18.1°
Enters shadow 18:32:01 - 11° (N) 3,015 6.9 -18.1°
